timestamp,surface_pressure_avg,surface_temp_avg,battery_voltage,lat,long
2020-05-25 00:09:01+00:00,333.7346,4.8,13.29,47.84626,-54.09684
2020-05-25 00:19:01+00:00,336.9480000000001,4.8,12.97,47.84626,-54.09684
2020-05-25 00:29:01+00:00,341.0897,4.77,12.97,47.84626,-54.09684
2020-05-25 00:39:01+00:00,344.4579,4.59,12.97,47.84626,-54.09684
2020-05-25 00:49:01+00:00,342.5696,4.2,12.97,47.84626,-54.09684
2020-05-25 00:59:01+00:00,341.3179,4.3,12.97,47.84626,-54.09684
2020-05-25 01:09:01+00:00,345.5112,4.31,12.97,47.84626,-54.09684
2020-05-25 01:19:01+00:00,343.6512,4.51,12.73,47.84626,-54.09684
2020-05-25 01:29:01+00:00,339.4612,4.67,12.73,47.84626,-54.09684
2020-05-25 01:39:01+00:00,341.5114,4.7,12.73,47.84626,-54.09684
2020-05-25 01:49:01+00:00,342.3780000000001,4.68,12.73,47.84626,-54.09684
2020-05-25 01:59:01+00:00,337.1096,4.65,12.73,47.84626,-54.09684
2020-05-25 02:09:01+00:00,329.8913,4.6,12.73,47.84626,-54.09684
2020-05-25 02:19:01+00:00,329.8863,4.6,12.65,47.84626,-54.09684
2020-05-25 02:29:01+00:00,327.913,4.62,12.65,47.84626,-54.09684
2020-05-25 02:39:01+00:00,325.5563,4.68,12.65,47.84626,-54.09684
2020-05-25 02:49:01+00:00,325.2496,4.7,12.65,47.84626,-54.09684
2020-05-25 02:59:01+00:00,323.1497,4.7,12.65,47.84626,-54.09684
2020-05-25 03:09:01+00:00,315.373,4.7,12.65,47.84626,-54.09684
2020-05-25 03:19:01+00:00,306.118,4.67,12.65,47.84626,-54.09684
2020-05-25 03:29:01+00:00,302.4996,4.7,12.65,47.84626,-54.09684
2020-05-25 03:39:01+00:00,297.8664,4.77,12.65,47.84626,-54.09684
2020-05-25 03:49:01+00:00,288.3914,4.85,12.65,47.84626,-54.09684
2020-05-25 03:59:01+00:00,278.6814,4.9,12.65,47.84626,-54.09684
2020-05-25 04:09:01+00:00,271.5831,4.9,12.65,47.84626,-54.09684
2020-05-25 04:19:01+00:00,262.6347,4.94,12.65,47.84626,-54.09684
2020-05-25 04:29:01+00:00,252.8231,4.97,12.65,47.84626,-54.09684
2020-05-25 04:39:01+00:00,246.7997,4.9,12.65,47.84626,-54.09684
2020-05-25 04:49:01+00:00,239.0281,4.9,12.65,47.84626,-54.09684
2020-05-25 04:59:01+00:00,229.7431,4.9,12.65,47.84626,-54.09684
2020-05-25 05:09:01+00:00,221.8997,4.9,12.65,47.84626,-54.09684
2020-05-25 05:19:01+00:00,213.7247,4.9,12.65,47.84626,-54.09684
2020-05-25 05:29:01+00:00,201.0348,4.9,12.65,47.84626,-54.09684
2020-05-25 05:39:01+00:00,191.0964,4.9,12.65,47.84626,-54.09684
2020-05-25 05:49:01+00:00,186.8082,4.9,12.65,47.84626,-54.09684
2020-05-25 05:59:01+00:00,181.8814,4.9,12.65,47.84626,-54.09684
2020-05-25 06:09:01+00:00,176.3732,4.9,12.65,47.84626,-54.09684
2020-05-25 06:19:01+00:00,172.7581,4.9,12.57,47.84626,-54.09684
2020-05-25 06:29:01+00:00,170.0132,4.9,12.57,47.84626,-54.09684
2020-05-25 06:39:01+00:00,166.2965,4.9,12.57,47.84626,-54.09684
2020-05-25 06:49:01+00:00,165.0248,4.9,12.57,47.84626,-54.09684
2020-05-25 06:59:01+00:00,167.5515,4.9,12.57,47.84626,-54.09684
2020-05-25 07:09:01+00:00,169.0565,4.9,12.57,47.84626,-54.09684
2020-05-25 07:19:01+00:00,169.8766,4.9,12.57,47.84626,-54.09684
2020-05-25 07:29:01+00:00,172.9698,4.9,12.57,47.84626,-54.09684
2020-05-25 07:39:01+00:00,175.7548,4.9,12.57,47.84626,-54.09684
2020-05-25 07:49:01+00:00,177.8232,4.9,12.57,47.84626,-54.09684
2020-05-25 07:59:01+00:00,182.5165,4.8,12.57,47.84626,-54.09684
2020-05-25 08:09:01+00:00,188.0314,4.8,12.57,47.84626,-54.09684
2020-05-25 08:19:01+00:00,190.1214,4.8,12.57,47.84626,-54.09684
2020-05-25 08:29:01+00:00,194.7248,4.79,12.57,47.84626,-54.09684
2020-05-25 08:39:01+00:00,199.0732,4.7,12.57,47.84626,-54.09684
2020-05-25 08:49:01+00:00,200.2415,4.7,12.57,47.84626,-54.09684
2020-05-25 08:59:01+00:00,202.5931,4.74,12.57,47.84626,-54.09684
2020-05-25 09:09:01+00:00,207.1298,4.72,12.57,47.84626,-54.09684
2020-05-25 09:19:01+00:00,210.3931,4.75,12.81,47.84626,-54.09684
2020-05-25 09:29:01+00:00,210.0947,4.77,12.81,47.84626,-54.09684
2020-05-25 09:39:01+00:00,212.1831,4.7,12.81,47.84626,-54.09684
2020-05-25 09:49:01+00:00,218.8964,4.7,12.81,47.84626,-54.09684
2020-05-25 09:59:01+00:00,225.9531,4.7,12.81,47.84626,-54.09684
2020-05-25 10:09:01+00:00,229.7064,4.7,12.81,47.84626,-54.09684
2020-05-25 10:19:01+00:00,232.5497,4.69,13.6,47.84626,-54.09684
2020-05-25 10:29:01+00:00,238.3748,4.7,13.6,47.84626,-54.09684
2020-05-25 10:39:01+00:00,245.6064,4.7,13.6,47.84626,-54.09684
2020-05-25 10:49:01+00:00,250.6597,4.7,13.6,47.84626,-54.09684
2020-05-25 10:59:01+00:00,256.4664,4.7,13.6,47.84626,-54.09684
2020-05-25 11:09:01+00:00,265.4414,4.7,13.6,47.84626,-54.09684
2020-05-25 11:19:01+00:00,272.6464,4.7,14.4,47.84626,-54.09684
2020-05-25 11:29:01+00:00,274.6513,4.68,14.4,47.84626,-54.09684
2020-05-25 11:39:01+00:00,279.2514,4.68,14.4,47.84626,-54.09684
2020-05-25 11:49:01+00:00,288.4431,4.69,14.4,47.84626,-54.09684
2020-05-25 11:59:01+00:00,294.2197,4.69,14.4,47.84626,-54.09684
2020-05-25 12:09:01+00:00,295.158,4.69,14.4,47.84626,-54.09684
2020-05-25 12:19:01+00:00,299.103,4.7,14.56,47.84626,-54.09684
2020-05-25 12:29:01+00:00,305.3464,4.7,14.56,47.84626,-54.09684
2020-05-25 12:39:01+00:00,306.5431,4.7,14.56,47.84626,-54.09684
2020-05-25 12:49:01+00:00,306.4615,4.7,14.56,47.84626,-54.09684
2020-05-25 12:59:01+00:00,310.913,4.7,14.56,47.84626,-54.09684
2020-05-25 13:09:01+00:00,312.873,4.7,14.56,47.84626,-54.09684
2020-05-25 13:19:01+00:00,312.9597,4.7,14.56,47.84626,-54.09684
2020-05-25 13:29:01+00:00,314.0814,4.7,14.56,47.84626,-54.09684
2020-05-25 13:39:01+00:00,318.4379,4.71,14.56,47.84626,-54.09684
2020-05-25 13:49:01+00:00,317.5963,4.77,14.56,47.84626,-54.09684
2020-05-25 13:59:01+00:00,314.2762,4.79,14.56,47.84626,-54.09684
2020-05-25 14:09:01+00:00,314.2346,4.8,14.56,47.84626,-54.09684
2020-05-25 14:19:01+00:00,313.4947,4.8,14.48,47.84626,-54.09684
2020-05-25 14:29:01+00:00,307.2429,4.8,14.48,47.84626,-54.09684
2020-05-25 14:39:01+00:00,303.278,4.82,14.48,47.84626,-54.09684
2020-05-25 14:49:01+00:00,303.3363,4.86,14.48,47.84626,-54.09684
2020-05-25 14:59:01+00:00,300.0764,4.88,14.48,47.84626,-54.09684
2020-05-25 15:09:01+00:00,292.418,4.88,14.48,47.84626,-54.09684
2020-05-25 15:19:01+00:00,287.4164,4.89,14.4,47.84626,-54.09684
2020-05-25 15:29:01+00:00,284.1481,4.89,14.4,47.84626,-54.09684
2020-05-25 15:39:01+00:00,278.4481,4.9,14.4,47.84626,-54.09684
2020-05-25 15:49:01+00:00,270.4464,4.9,14.4,47.84626,-54.09684
2020-05-25 15:59:01+00:00,265.7581,4.9,14.4,47.84626,-54.09684
2020-05-25 16:09:01+00:00,261.4947,4.9,14.4,47.84626,-54.09684
2020-05-25 16:19:01+00:00,253.178,4.9,14.32,47.84626,-54.09684
2020-05-25 16:29:01+00:00,244.2031,5.0,14.32,47.84626,-54.09684
2020-05-25 16:39:01+00:00,238.7148,5.0,14.32,47.84626,-54.09684
2020-05-25 16:49:01+00:00,231.2298,5.05,14.32,47.84626,-54.09684
2020-05-25 16:59:01+00:00,222.5364,5.1,14.32,47.84626,-54.09684
2020-05-25 17:09:01+00:00,214.9865,5.1,14.32,47.84626,-54.09684
2020-05-25 17:19:01+00:00,206.9498,5.0,14.24,47.84626,-54.09684
2020-05-25 17:29:01+00:00,200.6398,5.0,14.24,47.84626,-54.09684
2020-05-25 17:39:01+00:00,195.0565,5.0,14.24,47.84626,-54.09684
2020-05-25 17:49:01+00:00,187.9098,5.0,14.24,47.84626,-54.09684
2020-05-25 17:59:01+00:00,182.6898,5.09,14.24,47.84626,-54.09684
2020-05-25 18:09:01+00:00,178.6532,5.09,14.24,47.84626,-54.09684
2020-05-25 18:19:01+00:00,174.9882,5.17,14.0,47.84626,-54.09684
2020-05-25 18:29:01+00:00,172.9515,5.26,14.0,47.84626,-54.09684
2020-05-25 18:39:01+00:00,170.6865,5.34,14.0,47.84626,-54.09684
2020-05-25 18:49:01+00:00,168.7165,5.47,14.0,47.84626,-54.09684
2020-05-25 18:59:01+00:00,169.1432,5.5,14.0,47.84626,-54.09684
2020-05-25 19:09:01+00:00,170.0898,5.56,14.0,47.84626,-54.09684
2020-05-25 19:19:01+00:00,169.6715,5.6,14.0,47.84626,-54.09684
2020-05-25 19:29:01+00:00,172.7098,5.7,14.0,47.84626,-54.09684
2020-05-25 19:39:01+00:00,176.5182,5.85,14.0,47.84626,-54.09684
2020-05-25 19:49:01+00:00,175.3582,5.92,14.0,47.84626,-54.09684
2020-05-25 19:59:01+00:00,177.7315,6.0,14.0,47.84626,-54.09684
2020-05-25 20:09:01+00:00,184.9115,6.1,14.0,47.84626,-54.09684
2020-05-25 20:19:01+00:00,188.6282,6.1,13.84,47.84626,-54.09684
2020-05-25 20:29:01+00:00,192.8931,6.1,13.84,47.84626,-54.09684
2020-05-25 20:39:01+00:00,198.9781,6.1,13.84,47.84626,-54.09684
2020-05-25 20:49:01+00:00,203.5281,6.1,13.84,47.84626,-54.09684
2020-05-25 20:59:01+00:00,208.5398,6.1,13.84,47.84626,-54.09684
2020-05-25 21:09:01+00:00,213.6931,6.02,13.84,47.84626,-54.09684
2020-05-25 21:19:01+00:00,219.7798,6.0,13.76,47.84626,-54.09684
2020-05-25 21:29:01+00:00,226.2714,6.0,13.76,47.84626,-54.09684
2020-05-25 21:39:01+00:00,231.4047,6.0,13.76,47.84626,-54.09684
2020-05-25 21:49:01+00:00,236.0764,5.98,13.76,47.84626,-54.09684
2020-05-25 21:59:01+00:00,239.3214,5.9,13.76,47.84626,-54.09684
2020-05-25 22:09:01+00:00,243.4014,5.9,13.76,47.84626,-54.09684
2020-05-25 22:19:01+00:00,247.3798,5.97,13.68,47.84626,-54.09684
2020-05-25 22:29:01+00:00,252.6131,6.0,13.68,47.84626,-54.09684
2020-05-25 22:39:01+00:00,256.4231,6.0,13.68,47.84626,-54.09684
2020-05-25 22:49:01+00:00,260.1214,6.05,13.68,47.84626,-54.09684
2020-05-25 22:59:01+00:00,264.0314,6.07,13.68,47.84626,-54.09684
2020-05-25 23:09:01+00:00,270.5214,6.08,13.68,47.84626,-54.09684
2020-05-25 23:19:01+00:00,276.3865,6.04,13.29,47.84626,-54.09684
2020-05-25 23:29:01+00:00,285.608,6.02,13.29,47.84626,-54.09684
2020-05-25 23:39:01+00:00,296.7697,6.0,13.29,47.84626,-54.09684
2020-05-25 23:49:01+00:00,304.303,6.0,13.29,47.84626,-54.09684
2020-05-25 23:59:01+00:00,306.688,5.95,13.29,47.84626,-54.09684
